Sally Plumb Plumb

Bronze Star - 2,712 Points (23 9 1940 / Haverhill Suffolk England)

Stats

» Click to list general statistics » OR, select a date :

General Statistics

Visitors of the poet

Number of visitors of the poet’s mainpage in PoemHunter.Com

Attention : Numbers in this table does not indicate the total hits of poems of the poet, but indicates the hits of the poet’s main page.

Date Hits
02/11/2016 Thursday 169
67%
02/10/2016 Wednesday 226
90%
02/09/2016 Tuesday 251
100%
02/08/2016 Monday 174
69%
02/07/2016 Sunday 138
54%
02/06/2016 Saturday 169
67%
02/05/2016 Friday 110
43%
02/04/2016 Thursday 86
34%
02/03/2016 Wednesday 92
36%
02/02/2016 Tuesday 94
37%
02/01/2016 Monday 87
34%
01/31/2016 Sunday 127
50%
01/30/2016 Saturday 72
28%
01/29/2016 Friday 68
27%
01/28/2016 Thursday 107
42%
01/27/2016 Wednesday 113
45%
01/26/2016 Tuesday 87
34%
01/25/2016 Monday 105
41%
01/24/2016 Sunday 91
36%
01/23/2016 Saturday 81
32%

Reader rating & num.of MyPoemList’s

Click the captions of columns to change the order.

# Poem Title Submit Date Reader Rating Num.of MyPoemList’s
Rating Num.R.
1 Squaw 11/01/2015 10.0 3 1
2 Division 10/06/2015 -- 0 0
3 Vanity 08/25/2015 -- 0 0
4 Your Call 08/25/2015 -- 0 0
5 United 06/27/2015 -- 0 0
6 Sacrifice 06/27/2015 -- 0 0
7 Prayer For Night 06/27/2015 -- 0 0
8 Rocker Song 03/31/2015 -- 0 0
9 Nightwatch 11/04/2014 10.0 1 0
10 A Boy And A Frog (Kids Stuff) 10/23/2014 -- 0 1
11 The Slow Walk 08/09/2014 10.0 1 0
12 After 08/08/2014 -- 0 0
13 The Contest 06/05/2014 -- 0 0
14 Barn Owl 05/09/2014 10.0 1 0
15 Listen 05/08/2014 -- 0 0
16 Harmony 05/07/2014 10.0 1 0
17 Conflict 02/24/2014 10.0 2 0
18 Confession 02/11/2014 -- 0 0
19 Night Bird 02/07/2014 -- 0 0
20 Ebb Tide 02/03/2014 10.0 1 0
21 Many Hollows 01/03/2014 7.5 2 0
22 Night Ways 01/02/2014 -- 0 0
23 The Lion 01/01/2014 7.0 1 0
24 The Appointment 12/24/2013 -- 0 0
25 Flippancy 12/22/2013 9.0 2 0
26 Hit 12/21/2013 10.0 1 0
27 Negativity 11/11/2013 10.0 2 0
28 Too Old 10/28/2013 10.0 3 0
29 Three Phases 09/28/2013 10.0 1 0
30 Frightened Fourteen (Kids Stuff) 09/27/2013 10.0 1 0
31 Killing Time 09/23/2013 8.5 2 0
32 Rumour 08/30/2013 -- 0 0
33 Separation 08/14/2013 10.0 3 2
34 Shades Of Love 08/01/2013 10.0 4 1
35 Getting Fat 06/28/2013 9.7 3 0
36 Infinity 05/08/2013 9.8 10 1
37 Twilight 03/30/2013 10.0 4 2
38 Mind Healer 03/19/2013 9.5 2 0
39 Mute 03/18/2013 9.5 4 0
40 Down The Drain 03/07/2013 9.7 3 0
41 Monday Morning 03/06/2013 10.0 1 0
42 Imagination 03/05/2013 10.0 1 0
43 Earth Fire 12/08/2012 10.0 1 0
44 Nightmare 10/20/2012 10.0 2 0
45 Workday Weekday 10/17/2012 -- 0 0
46 Remorse 10/07/2012 -- 0 0
47 High Hopes 10/06/2012 -- 0 0
48 Lost For Words 10/04/2012 10.0 1 0
49 Confused? 08/15/2012 -- 0 0
50 Breakdown 08/14/2012 10.0 4 0
51 Departure 08/07/2012 10.0 2 0
52 Seagull 07/11/2012 10.0 4 0
53 Late Friday Night 06/29/2012 9.7 3 0
54 Rig Divers North Sea 06/28/2012 -- 0 0
55 Gossips 06/27/2012 10.0 3 0
56 Another Shade Of Blue 06/27/2012 10.0 5 1
57 Score 04/22/2012 10.0 2 0
58 Request 04/21/2012 10.0 1 0
59 Tough Love 04/18/2012 10.0 3 0
60 Stairway 03/23/2012 10.0 1 0
61 Wind And Rain 02/20/2012 10.0 3 0
62 Dawn 02/09/2012 -- 0 0
63 Defeat 02/08/2012 10.0 2 0
64 Jack Spratt 12/27/2011 9.7 3 0
65 Beyond 12/06/2011 -- 0 0
66 Undressed 12/05/2011 -- 0 0
67 Letter 11/28/2011 10.0 1 0
68 Fantasia 11/24/2011 -- 0 0
69 Betrayel 11/22/2011 -- 0 0
70 Grandmama 11/21/2011 -- 0 0
71 Crimes 11/01/2011 9.7 3 0
72 Swing High Swing Low 10/07/2011 10.0 1 1
73 Destiny 10/05/2011 10.0 1 0
74 Silken Thread 10/02/2011 -- 0 0
75 Seeing You 10/01/2011 10.0 1 0
76 Fractions 09/30/2011 -- 0 0
77 Question 09/28/2011 -- 0 0
78 Birth 09/09/2011 -- 0 0
79 The Voice Of Seduction 09/07/2011 -- 0 0
80 Second Depression 08/10/2011 -- 0 0
81 Crumbs 08/06/2011 10.0 1 0
82 Night Sky 07/08/2011 9.0 2 0
83 The Social Divide 07/04/2011 -- 0 0
84 Retort 07/01/2011 10.0 1 0
85 Mr Jones 06/15/2011 -- 0 0
86 Bitter Beginning 06/13/2011 -- 0 0
87 Imagine 06/03/2011 -- 0 0
88 Gabriel 06/02/2011 -- 0 0
89 The Shift Worker 05/25/2011 8.0 1 0
90 Downtown 05/20/2011 -- 0 0
91 Skin 05/19/2011 -- 0 0
92 Natural Tempo 05/18/2011 10.0 2 0
93 Magical Night 04/14/2011 10.0 1 0
94 Conversation 04/12/2011 -- 0 0
95 Aunt Summer Rose (Kids Stuff) 04/08/2011 -- 0 0
96 Eden's Gate 04/07/2011 -- 0 0
97 First Season 03/29/2011 -- 0 0
98 November 03/09/2011 10.0 1 0
99 Chores 03/08/2011 10.0 1 0
100 Torment 03/05/2011 -- 0 0
101 Over Time 02/19/2011 -- 0 0
102 The Thaw 02/18/2011 10.0 1 0
103 Jukes Song 02/14/2011 -- 0 0
104 Thinks Party 02/12/2011 10.0 2 1
105 Predator 02/11/2011 -- 0 0
106 Headless 02/08/2011 6.0 1 0
107 Annie May 01/06/2011 10.0 1 0
108 Look 01/05/2011 -- 0 0
109 Slough Of Despond 12/11/2010 10.0 2 0
110 The Dryad 12/04/2010 -- 0 0
111 Christmas Day 12/03/2010 10.0 1 0
112 Snake Skin 12/01/2010 10.0 1 0
113 Opposition 11/12/2010 -- 0 0
114 Natures Way 10/13/2010 -- 0 0
115 Bad Rivers 10/12/2010 10.0 4 0
116 Calling Wind 10/01/2010 9.8 4 0
117 Decision 09/23/2010 10.0 1 0
118 Passing Tedious Time 08/26/2010 -- 0 0
119 Zero 08/10/2010 10.0 3 0
120 1957 08/04/2010 9.5 4 0
121 Singing Lesson 08/02/2010 -- 0 0
122 Evening At Home 06/29/2010 10.0 2 0
123 Not Tonight 06/28/2010 -- 0 0
124 6 P.M. 06/08/2010 9.5 2 0
125 Orange 06/01/2010 10.0 1 0
126 Yellow Iris 05/23/2010 10.0 1 0
127 Shower 05/22/2010 -- 0 0
128 Reunion 05/17/2010 -- 0 0
129 Shadow 05/16/2010 10.0 1 0
130 Explanation 05/15/2010 -- 0 0
131 Spirit 05/14/2010 10.0 2 1
132 The Haunted 05/13/2010 10.0 1 0
133 Live Music 05/13/2010 10.0 1 0
134 Wren 03/13/2010 10.0 1 0
135 Spring Weather 03/12/2010 -- 0 0
136 Breathing 02/09/2010 10.0 3 1
137 Unfamiliar Fantasy 01/22/2010 10.0 1 0
138 Climate Change 12/26/2009 10.0 1 0
139 Missing Person 12/25/2009 -- 0 0
140 Languor 12/24/2009 10.0 1 0
141 Side Affects 12/23/2009 10.0 2 0
142 Unspeakable 12/22/2009 10.0 1 0
143 Summer 12/14/2009 10.0 1 0
144 High 12/12/2009 -- 0 0
145 Speechless 12/05/2009 10.0 2 1
146 Insight 11/14/2009 10.0 3 0
147 The Haunted Sea (Kids Stuff) 11/05/2009 10.0 2 0
148 Flight 10/15/2009 10.0 3 0
149 Ripple 10/09/2009 10.0 1 0
150 Perfect Silence 10/07/2009 8.9 7 1
151 Starters 10/02/2009 10.0 1 0
152 Pastel 09/24/2009 10.0 3 0
153 Sleep 09/18/2009 10.0 4 0
154 Spirit Wings 09/07/2009 10.0 1 0
155 Annoyance 09/05/2009 10.0 3 0
156 Lyric 09/02/2009 10.0 3 0
157 Weeping Willow 08/29/2009 9.5 2 3
158 Ritual 08/12/2009 10.0 1 0
159 Enrichment 08/10/2009 10.0 1 0
160 Recruit 07/30/2009 10.0 1 0
161 Bebe 07/29/2009 10.0 3 1
162 Music 07/28/2009 10.0 2 0
163 Saturday Night And Sunday Morning 07/22/2009 -- 0 1
164 The Red Indian 07/10/2009 10.0 1 0
165 Be Kind Be Sweet 07/08/2009 9.5 2 1
166 Late Afternoon 07/07/2009 10.0 1 0
167 Left Undead 07/06/2009 -- 0 0
168 Cloud 07/02/2009 10.0 3 2
169 Foxglove 06/28/2009 10.0 1 0
170 The Chain 06/17/2009 -- 0 0
171 Song Of A Dying Infant 06/03/2009 10.0 1 0
172 Confrontation (Darfur) 05/29/2009 10.0 5 0
173 Late Summer 05/18/2009 -- 0 1
174 A Question Of God 05/17/2009 9.6 11 1
175 Death Of A Woman 05/12/2009 10.0 3 0
176 Angels 05/09/2009 10.0 6 1
177 A Dark Fire 05/08/2009 10.0 7 1
178 Fight 05/07/2009 10.0 2 0
179 We Are 05/06/2009 10.0 4 0
180 Shadow Street 05/05/2009 7.3 3 0
181 Rendezvous 05/04/2009 9.5 2 0
182 Lifting 05/03/2009 10.0 1 0
183 A Humorous Death 05/02/2009 10.0 11 3
184 Thought 05/01/2009 9.5 4 0
185 Leaving 04/30/2009 -- 0 0
186 The Queue 04/29/2009 10.0 1 0
187 Granpa 04/28/2009 10.0 1 0
188 Two Confused 04/27/2009 10.0 1 1
189 Breakfast 04/26/2009 9.7 7 1
190 Happiness Is Sacred 04/25/2009 10.0 1 0
191 Crucible 04/24/2009 9.7 3 0
192 Valentine 04/23/2009 10.0 2 1
193 Hettie 04/06/2009 10.0 2 0
194 Six A.M. 04/04/2009 -- 0 0
195 Diary 04/01/2009 9.3 3 2
196 Possession 03/31/2009 10.0 1 1
197 Pretence 03/30/2009 10.0 1 1
198 Sundial 03/29/2009 7.5 4 0
199 Sleep My Love 03/28/2009 10.0 2 2
200 Reynard 03/27/2009 -- 0 0
201 Lucifer 03/26/2009 -- 0 0
202 Picture 03/25/2009 10.0 1 2
203 Dream On 03/24/2009 10.0 1 2
204 Something Plus 03/23/2009 -- 0 1
205 Love 03/22/2009 10.0 1 0
206 Curse 03/21/2009 -- 0 0
207 Solitude 03/20/2009 10.0 1 1
208 Anger 03/19/2009 10.0 2 2
209 Moon Song 03/18/2009 10.0 2 2
210 Winter 03/15/2009 9.8 5 1
211 Summer Shade 03/15/2009 9.0 2 1
212 Skylark 03/15/2009 10.0 1 0
213 Simplicity 03/14/2009 10.0 1 0
214 Snowdrops 03/14/2009 10.0 1 2
215 Upside Down 03/14/2009 10.0 2 0
216 The Native 03/14/2009 10.0 1 0
217 Search 03/14/2009 10.0 2 0
218 Surprise Suprise 03/14/2009 10.0 1 0
219 Changeover 03/14/2009 10.0 3 1
220 He Is 03/14/2009 10.0 3 0
221 Guide 03/14/2009 10.0 2 1
222 Vow 03/14/2009 10.0 3 0
223 Cats 03/14/2009 9.5 2 1
224 Love After Death 03/14/2009 10.0 1 1
225 The Juveniles 03/14/2009 10.0 2 0
226 Serenade 03/14/2009 10.0 1 0
227 Poppies 03/14/2009 10.0 2 0
228 May 03/14/2009 10.0 1 0
229 Village Tree 03/14/2009 9.5 2 0
230 Sunrise 03/14/2009 10.0 2 1
231 Sparrows 03/14/2009 10.0 3 0
232 Figment 03/14/2009 10.0 2 1
233 A Slow Smoke 03/14/2009 9.8 4 1
234 Time Past 03/14/2009 10.0 2 2
235 Good Night 03/14/2009 10.0 2 1
236 The Satyr 03/14/2009 10.0 1 0
237 Somewhere 03/14/2009 10.0 1 1
238 Formation 03/14/2009 -- 0 1
239 Wildflowers Live On 03/14/2009 10.0 4 2
240 Apple Tree 03/14/2009 10.0 9 2
241 Purer Than White 03/14/2009 10.0 2 0
242 Goodnight Baby Love 03/14/2009 10.0 1 1
243 Storm 03/14/2009 10.0 1 2
244 Headstones 03/14/2009 10.0 1 0
245 Underfoot 03/14/2009 10.0 1 0
246 Fantasy 03/14/2009 10.0 3 1
247 Smile 03/14/2009 10.0 2 2
248 Judas 03/14/2009 10.0 1 0
249 Domestic 03/14/2009 10.0 2 0
250 Ghost 03/14/2009 10.0 2 2
251 Rowley 03/14/2009 -- 0 0
252 Starless 03/14/2009 10.0 2 2
253 Reflection 03/14/2009 -- 0 2
254 Pretty 03/14/2009 9.0 2 1
[Hata Bildir]